Temp
16 16 16 16 16 16 16 16 16 16 16 15 15 15 14 14 13 12 12 12 12 11 11 11 11 10 10 10 10 9 9 9 9 9 8 8 8 7 7 7 7 7 7
17 16 17 16 16 17 16 16 16 16 16 15 15 15 15 14 13 13 12 12 12 11 11 11 11 11 10 10 9 9 9 9 9 9 8 8 8 7 7 7 7 6 7
17 17 17 16 16 16 16 16 15 15 15 15 15 15 15 14 14 13 13 12 12 12 12 11 11 11 10 10 10 9 9 9 9 9 8 8 7 7 7 6 6 6 6
17 17 16 17 16 16 16 16 15 15 15 15 15 15 14 14 14 14 14 13 13 12 12 11 11 11 10 10 10 9 9 9 9 8 8 8 7 7 7 6 6 6 6
17 17 17 16 17 16 16 16 15 16 15 15 15 15 15 14 14 14 14 14 14 13 12 12 11 11 11 10 10 10 9 9 9 8 8 7 7 7 7 6 6 6 6
17 16 17 16 18 16 16 16 16 15 15 15 14 15 15 14 14 14 14 14 14 14 13 12 11 11 11 11 10 10 10 10 9 8 8 7 7 7 7 6 6 5 5
16 16 17 18 17 17 16 16 15 15 15 15 14 13 14 14 14 14 14 14 14 13 13 13 12 11 11 11 11 10 10 10 10 9 8 7 7 7 7 6 6 5 5
17 16 16 16 16 16 16 15 15 15 15 14 14 12 11 13 14 14 14 14 14 13 13 12 12 11 11 11 11 11 10 10 10 9 8 7 6 6 6 6 5 5 4
16 16 17 17 17 16 16 16 16 15 15 14 14 15 10 10 10 13 14 14 13 13 13 12 12 11 11 11 11 11 11 10 10 9 9 8 7 6 5 5 5 4 4
16 16 16 16 16 16 16 16 16 16 15 14 13 13 13 13 10 11 12 13 13 12 12 12 12 12 12 11 11 11 11 10 10 10 9 8 7 6 5 5 5 4 4
16 17 16 16 16 16 16 16 16 15 15 15 14 13 12 11 11 11 10 10 11 12 12 12 11 12 11 10 11 11 10 10 10 9 9 8 7 6 6 5 5 5 4
17 16 16 16 16 16 16 16 16 15 14 14 13 13 13 12 10 10 8 9 10 10 11 11 11 11 11 11 10 10 10 9 9 9 8 8 8 7 6 6 5 5 5
16 16 16 16 16 16 16 16 15 15 14 12 12 11 12 12 13 12 10 8 8 10 10 10 11 11 10 9 9 9 9 9 8 8 8 8 7 7 7 6 6 5 5
14 15 15 16 16 16 16 16 15 14 13 13 12 12 11 11 11 11 11 8 6 7 7 9 10 9 9 8 8 8 7 7 7 7 7 7 7 7 7 6 6 5 5
14 14 15 15 15 15 15 15 14 14 13 13 13 12 12 11 10 11 10 9 9 7 6 7 8 8 8 8 7 7 7 6 7 7 7 7 6 6 6 6 6 5 5
14 14 14 15 15 15 14 14 13 13 14 13 13 12 12 11 10 10 9 8 8 7 6 7 7 7 7 6 6 6 6 6 6 6 6 6 6 6 5 5 5 5 4
13 14 14 14 15 14 13 12 13 13 13 12 12 12 11 10 9 8 7 7 7 6 4 4 5 5 5 5 5 5 5 5 4 4 4 5 5 5 5 5 4 4 3
14 14 15 13 13 13 13 13 12 12 12 12 12 10 9 9 8 7 7 6 5 5 4 4 4 4 4 3 3 3 3 4 3 3 4 4 4 4 4 4 4 4 3
14 13 12 13 14 13 13 13 13 12 12 11 11 9 9 8 7 6 5 5 5 4 4 3 2 2 2 1 1 2 2 2 3 3 3 3 3 3 3 3 3 3 3
12 12 12 12 12 12 12 14 12 11 11 10 9 8 8 7 6 5 5 4 4 3 3 2 2 2 1 1 1 0 -0 0 -0 1 2 1 1 1 0 1 1 1 2
13 12 12 12 12 11 12 12 12 10 9 8 7 6 6 5 5 4 4 3 3 2 2 2 0 -1 -0 -0 -1 -2 -3 -3 -3 -1 -1 -1 -1 -1 -2 -2 -1 0 1
12 12 12 12 12 11 10 11 10 9 7 7 5 4 4 4 4 3 3 3 2 2 1 0 -1 -2 -2 -3 -3 -4 -4 -4 -3 -2 -3 -4 -4 -3 -2 -3 -2 -1 -0
12 12 12 11 10 10 10 8 8 7 6 5 4 3 3 2 2 2 1 1 1 0 -0 -1 -2 -3 -4 -4 -4 -5 -5 -6 -6 -5 -5 -5 -4 -4 -3 -3 -3 -2 -2
10 9 9 9 8 8 7 6 6 5 5 4 3 3 3 1 1 1 0 -0 -1 -2 -3 -3 -4 -4 -4 -4 -5 -6 -6 -6 -6 -5 -5 -4 -4 -4 -4 -3 -3 -3 -2
8 7 7 7 7 5 5 5 5 4 3 2 1 1 1 -0 -0 0 -0 -1 -3 -4 -4 -4 -4 -4 -4 -4 -5 -6 -6 -7 -6 -6 -6 -5 -5 -5 -4 -4 -3 -2 -2
6 5 5 5 5 3 3 3 4 3 1 0 -1 -1 -1 -1 -2 -2 -2 -3 -4 -5 -5 -4 -4 -4 -5 -5 -5 -6 -7 -8 -8 -7 -4 -6 -5 -5 -4 -3 -3 -2 -2
Height
831 835 836 841 844 846 848 851 856 857 859 862 865 868 869 870 873 874 876 877 880 882 883 885 887 888 889 889 889 890 891 890 890 890 892 894 894 895 894 893 894 893 893
830 834 837 841 845 848 851 854 855 857 860 864 867 869 870 872 873 874 876 878 881 883 883 884 886 887 889 890 890 890 890 890 891 891 891 893 895 895 895 894 895 894 893
830 833 837 841 845 848 852 853 858 858 861 865 868 869 870 872 873 874 876 877 879 881 883 884 885 886 888 890 891 891 891 891 891 891 891 892 894 894 894 895 894 893 892
830 834 837 841 844 846 851 853 856 858 861 863 867 869 870 871 872 872 874 876 878 879 881 882 883 885 886 887 888 889 889 890 890 891 891 891 891 892 893 894 893 892 891
828 832 837 842 841 846 851 853 855 858 860 863 866 867 868 869 870 871 872 873 875 876 878 880 882 883 885 887 887 889 889 889 890 890 890 889 890 891 891 891 890 889 888
828 832 837 839 839 846 849 851 854 856 858 862 864 865 866 867 868 868 870 871 872 873 875 877 879 881 883 884 884 886 887 887 888 888 888 887 888 888 888 887 887 886 885
828 832 834 836 840 842 847 849 852 854 857 859 861 864 864 864 864 866 868 869 870 871 873 874 875 877 880 882 882 882 883 885 886 886 886 886 886 886 885 885 884 883 883
824 830 832 834 838 840 842 847 848 851 854 856 858 862 862 861 859 860 862 864 866 868 869 871 873 875 876 877 878 879 880 881 882 883 883 883 884 883 883 883 882 881 881
823 826 828 831 833 836 841 844 847 848 850 853 855 858 861 861 857 855 856 858 860 863 865 867 869 870 871 872 873 874 876 876 877 879 879 880 880 880 880 880 880 879 878
819 822 827 831 833 836 838 840 842 845 847 849 853 853 853 853 855 856 853 853 855 858 859 861 863 865 865 867 868 869 871 872 872 873 874 874 874 874 873 873 874 874 872
817 820 823 826 829 831 833 835 838 841 842 843 845 845 848 849 850 850 852 850 851 851 854 857 856 858 859 861 862 865 866 868 867 868 868 869 870 870 870 869 868 869 869
811 813 817 820 824 826 828 831 834 835 836 837 837 840 842 841 842 844 846 844 847 849 849 851 852 853 854 855 857 859 861 862 862 863 864 864 865 866 866 865 864 864 864
804 807 811 815 818 821 824 826 828 828 830 832 835 835 830 835 836 837 839 841 843 845 846 847 849 849 850 851 854 855 856 856 856 856 857 858 859 859 859 858 857 857 857
802 806 808 810 813 816 818 820 821 823 824 826 823 823 827 827 830 832 834 838 840 841 843 843 844 845 846 849 849 849 849 850 851 852 852 852 851 850 851 852 851 850 849
796 800 802 805 808 810 812 812 813 814 818 819 818 821 820 822 824 826 829 829 833 836 838 838 841 842 843 844 844 845 844 845 845 845 846 846 845 844 844 844 843 843 842
791 794 797 799 801 801 803 805 806 807 809 810 811 813 814 817 819 821 824 824 828 831 835 836 838 840 840 840 840 839 840 840 841 840 840 839 838 837 837 836 835 834 833
783 786 789 792 792 792 793 796 797 797 800 803 805 806 808 810 814 816 819 822 824 827 829 832 833 835 835 835 835 835 834 835 835 835 834 832 831 831 829 828 826 824 822
771 774 777 780 785 784 787 789 789 789 792 794 796 798 801 805 809 811 814 817 822 822 826 829 830 832 832 832 832 830 829 829 829 828 827 825 824 822 821 818 816 814 811
759 763 767 771 774 774 779 780 782 783 785 788 789 793 795 799 803 808 812 815 818 821 823 825 826 828 829 828 827 824 824 822 822 821 819 817 815 813 811 808 805 802 800
753 756 759 762 765 766 771 771 774 777 780 783 786 790 793 797 801 807 811 814 816 817 820 822 824 825 826 825 823 820 817 815 813 813 810 809 805 802 800 796 794 791 788
748 750 753 756 759 761 762 763 767 772 777 781 784 788 792 796 800 804 808 812 813 815 816 819 821 821 820 820 818 816 813 809 807 804 800 800 796 795 790 786 783 780 778
742 744 746 749 750 752 757 758 763 770 775 778 782 786 791 794 799 803 806 808 810 811 814 815 816 817 817 816 814 812 809 807 803 800 797 792 791 785 782 779 774 771 769
735 739 740 743 745 749 753 757 760 767 772 776 780 785 790 794 798 801 803 805 808 808 810 812 813 814 813 811 810 807 806 805 803 798 796 783 785 778 774 770 767 764 762
728 731 736 738 742 745 750 755 760 766 771 776 781 785 790 793 796 799 802 804 805 807 808 809 809 809 808 807 807 806 804 801 796 794 793 781 779 772 767 763 760 756 755
724 729 732 735 740 745 750 752 758 763 769 775 780 784 788 791 794 797 800 802 803 805 806 806 805 804 804 804 804 801 800 797 789 786 785 780 771 767 762 756 751 748 746
721 726 730 735 740 746 751 755 759 764 770 775 781 785 789 791 793 795 797 799 800 801 801 801 801 801 801 800 799 798 796 794 792 779 778 777 770 769 756 750 746 745 741
Wind_Speed
35 33 33 33 30 25 24 25 23 22 19 16 15 13 14 14 15 16 16 15 15 14 13 13 12 11 11 11 10 9 8 8 9 9 8 7 8 8 9 10 10 10 10
36 33 33 31 27 23 21 21 18 17 16 14 14 12 12 12 13 14 15 15 12 13 13 12 11 11 10 9 9 7 6 6 6 6 7 6 6 6 7 8 8 8 9
36 34 31 29 26 22 21 19 16 15 14 13 12 11 11 11 11 11 12 14 14 13 12 13 13 12 11 9 9 6 5 3 4 5 6 6 5 4 4 4 5 6 7
35 32 29 27 26 21 18 17 16 15 14 13 11 11 11 11 10 11 11 13 15 15 14 15 14 14 13 12 10 8 6 4 3 3 5 4 3 3 2 1 4 6 6
35 32 29 28 22 18 15 16 15 13 14 13 11 11 10 11 10 11 12 12 13 14 15 17 17 16 15 13 11 9 8 5 5 4 6 4 3 4 4 6 4 5 6
33 32 31 23 16 18 17 17 14 14 14 15 14 13 13 13 14 15 14 13 14 15 15 17 19 20 18 16 12 10 9 8 8 7 7 5 5 7 7 7 6 5 6
29 27 22 23 22 20 21 18 17 16 19 16 13 13 15 16 18 19 18 18 18 18 18 18 20 21 20 18 15 12 10 11 11 10 11 9 9 9 9 8 7 6 7
24 24 23 21 21 21 20 20 20 20 21 19 9 3 1 7 21 24 24 24 23 22 22 22 22 22 21 21 18 16 13 13 14 13 14 15 13 12 11 10 8 7 8
27 24 19 22 23 16 19 19 21 22 22 22 23 8 1 4 2 9 23 28 27 26 26 26 24 23 24 23 22 20 19 17 17 16 17 19 17 16 14 11 10 8 8
19 20 20 18 18 17 18 20 20 23 24 22 21 25 18 6 4 2 7 12 21 30 28 26 28 24 25 27 27 25 24 21 20 23 20 22 21 19 17 15 14 12 10
31 27 23 19 20 21 24 24 25 27 27 28 29 16 26 17 12 5 3 6 9 18 27 26 30 27 23 26 31 29 28 26 23 28 27 24 24 23 21 19 17 16 14
33 31 29 26 26 24 25 28 29 30 31 31 32 30 23 11 16 10 5 9 10 11 15 20 25 25 25 26 27 30 29 28 27 29 30 30 27 24 25 24 21 20 19
35 39 36 36 33 31 29 28 30 29 32 26 25 28 35 34 28 22 16 6 8 11 9 15 19 22 21 17 15 15 19 25 28 29 30 31 29 31 31 28 26 25 24
34 35 37 38 38 35 33 32 33 33 27 21 18 23 30 31 36 31 23 11 2 8 8 10 9 12 9 8 12 15 17 17 19 21 25 29 35 37 37 34 32 30 29
33 34 34 34 35 34 33 32 32 31 22 25 28 33 27 32 31 28 24 21 12 3 3 5 10 10 8 10 13 14 14 16 18 21 23 26 29 33 37 39 38 36 35
34 35 36 35 35 34 33 32 33 29 28 32 35 30 29 29 25 23 19 17 15 11 3 8 8 8 15 18 17 16 18 20 21 22 23 24 25 27 32 38 41 42 41
36 37 37 36 40 37 37 31 31 30 31 34 30 32 29 25 22 18 16 15 13 11 6 4 8 12 15 17 17 17 18 21 23 23 24 26 28 30 32 35 38 41 41
42 42 43 43 40 30 27 27 29 32 27 30 29 27 25 21 19 18 18 15 11 9 6 6 6 11 14 14 17 18 18 20 22 23 24 26 28 30 31 33 34 37 39
42 40 36 38 40 35 31 26 27 33 30 28 27 27 24 21 20 19 16 13 11 7 5 4 3 5 14 14 19 22 23 23 24 26 28 30 31 34 36 39 41 41 40
33 33 36 39 38 35 31 28 24 27 28 26 24 21 20 20 19 17 14 11 8 7 5 5 9 13 15 18 17 18 23 27 30 33 36 34 34 35 36 39 41 41 42
34 33 36 38 37 32 29 23 23 27 25 22 18 16 16 15 15 14 13 10 8 6 6 8 9 9 12 13 15 15 22 25 27 28 22 22 26 30 36 37 40 41 38
34 33 35 37 36 31 25 21 25 24 23 22 21 20 18 16 14 12 10 8 6 5 4 5 7 8 11 12 16 18 22 16 9 15 20 35 32 33 36 34 38 39 35
33 32 34 32 29 27 23 24 22 23 23 23 23 22 19 15 12 10 8 5 4 4 4 5 6 7 10 12 16 20 20 17 18 26 25 34 25 30 33 34 33 35 32
29 27 26 24 25 19 18 20 21 23 22 21 21 18 16 13 10 8 6 4 2 1 2 3 5 8 11 14 15 14 18 23 25 23 21 27 26 30 33 33 33 34 33
23 22 23 23 22 23 23 23 26 26 25 21 17 15 12 11 8 6 4 3 2 1 2 4 6 8 9 10 10 14 15 16 19 20 21 22 24 26 28 34 32 29 29
23 23 22 22 26 26 22 23 24 25 23 20 16 13 10 7 5 2 3 2 1 2 7 9 9 9 9 9 10 12 14 14 15 16 8 13 24 19 13 23 22 27 26
Wind_Direction
165 161 152 152 148 144 142 142 140 141 141 144 146 145 147 147 149 151 149 152 152 147 143 142 150 149 146 140 134 126 116 104 98 101 101 100 90 83 74 67 59 51 46
169 165 158 157 154 149 147 148 139 139 142 152 157 161 158 160 164 162 162 166 166 163 161 160 163 162 164 169 163 150 138 116 108 107 112 103 91 86 72 62 52 43 37
174 169 165 163 159 152 148 145 150 142 149 158 165 167 171 174 174 172 174 176 182 183 187 186 182 179 183 183 181 174 159 142 128 126 126 117 110 99 74 53 37 26 24
177 174 169 166 166 156 157 161 163 158 165 169 177 182 183 191 188 187 191 194 199 199 200 207 204 197 198 201 202 198 193 190 172 159 145 138 133 139 130 5 359 357 356
181 179 178 178 163 169 175 177 179 182 180 187 198 201 209 211 209 208 211 211 211 211 214 214 220 219 218 211 209 216 220 216 203 191 178 170 174 202 255 292 318 329 330
187 186 185 177 172 185 191 196 201 202 208 206 207 216 223 223 224 227 230 229 227 226 224 221 223 227 228 232 229 219 228 228 222 213 205 212 229 265 276 289 293 299 309
188 197 187 193 193 197 206 211 210 214 219 217 216 228 237 238 238 239 241 242 239 236 234 232 227 228 233 242 244 238 228 235 233 231 223 225 230 259 272 289 288 290 298
188 199 197 196 204 210 216 223 227 223 222 218 197 187 292 256 243 243 242 244 246 243 240 237 233 232 237 240 244 247 239 234 236 239 235 236 233 244 259 279 281 284 294
196 203 209 208 219 217 225 231 234 231 230 221 216 205 133 230 301 239 242 246 248 246 244 242 238 239 246 245 244 246 247 247 239 242 243 239 236 239 241 253 258 264 279
203 217 218 231 237 234 242 244 244 239 232 223 221 228 238 229 191 293 244 245 247 246 247 244 243 244 254 251 250 249 252 248 251 251 245 238 236 236 236 239 247 255 266
218 216 222 235 246 247 249 255 253 244 241 236 233 225 229 236 230 207 245 230 229 243 243 244 244 247 257 260 257 255 256 252 260 256 253 242 242 242 243 244 246 253 261
225 230 228 238 249 255 255 258 259 256 253 248 246 238 229 218 218 208 214 231 243 255 242 248 240 248 260 271 263 260 260 258 259 257 257 257 249 251 252 249 250 254 259
237 239 239 243 251 258 263 266 265 263 259 257 265 258 250 245 245 242 220 218 224 246 242 244 250 259 265 265 263 271 272 265 266 265 263 256 258 262 257 249 250 254 259
238 240 242 244 253 262 268 271 267 262 263 252 255 254 260 266 254 243 240 207 205 220 226 236 257 247 226 254 289 302 286 265 268 274 276 269 268 270 261 263 262 257 259
246 248 249 253 260 265 272 272 263 257 258 264 259 252 259 263 253 246 244 236 214 173 216 228 222 229 235 281 297 295 296 298 287 279 280 283 281 272 267 267 267 269 267
250 256 256 257 262 268 270 269 259 259 247 257 255 257 258 254 248 242 237 228 227 206 185 207 210 256 286 290 291 291 290 295 296 291 288 287 287 284 279 273 271 274 269
252 254 257 263 266 268 267 261 256 250 251 250 257 256 246 240 233 223 214 214 210 200 187 211 260 288 290 290 294 296 298 298 296 294 292 288 286 285 282 276 272 273 273
247 249 247 251 258 252 253 252 249 246 245 247 245 235 229 222 218 211 205 201 205 199 213 227 267 286 294 297 299 300 301 302 304 301 299 296 294 292 289 287 285 283 281
243 243 237 240 242 244 241 250 259 253 255 243 239 224 218 211 203 200 194 191 195 212 225 220 283 288 298 305 307 304 311 310 308 308 303 300 297 293 293 290 288 287 284
238 238 234 240 240 241 236 242 251 241 236 233 224 218 212 205 197 192 189 194 201 204 209 277 291 291 290 298 300 307 313 313 311 309 305 302 298 298 296 292 293 289 287
242 239 242 243 244 245 232 231 230 222 217 206 198 191 186 182 180 185 190 201 211 216 240 261 272 278 292 304 316 317 313 316 315 315 310 302 303 302 298 296 292 289 292
238 238 238 243 244 236 232 231 210 206 200 186 168 163 165 173 180 186 199 212 220 198 216 240 268 284 298 307 315 319 319 321 321 309 314 305 304 304 307 301 293 292 294
228 232 228 228 227 225 222 206 199 194 180 171 166 164 158 163 174 173 183 191 223 259 266 266 278 298 303 318 319 316 315 305 289 298 304 295 300 293 300 303 297 296 291
217 209 213 211 208 195 181 178 177 171 163 160 163 163 167 161 168 175 177 185 202 261 284 300 304 309 308 311 307 300 300 296 290 290 288 284 295 287 294 300 302 295 289
197 196 193 186 176 160 167 165 164 157 148 145 150 154 162 163 178 199 199 187 164 196 324 325 322 315 307 301 300 303 306 308 302 297 291 275 284 289 296 296 302 305 293
170 167 158 164 159 149 154 157 161 153 144 143 144 147 155 164 161 166 185 174 144 317 330 329 328 323 319 315 310 306 306 300 304 315 318 318 300 300 298 296 310 308 297